sat.trackr.live / text

‹ back to catalog

STARLINK-36743

NORAD 67876 · 2026-034AC

PAYLOAD ACTIVE UNKNOWN

§ Identity

Operator
Country
US
Launch date
2026-02-20
Launch site
AFETR
Launch vehicle
Mass (kg)
RCS (m²)

Purposes: comms

External: N2YO · Heavens-Above · Gunter

§ Orbital elements

Epoch: 2026-05-25T04:22:14.475072Z

Period
94.10 min
Inclination
53.1582°
Eccentricity
0.0001176
Mean motion
15.30207835 rev/d
Perigee alt
474.4 km
Apogee alt
476.0 km
Semi-major
6,853.3 km
B*
5.8919e-4
RAAN
209.1791°
Arg perigee
87.8617°
Mean anomaly
272.2519°
Rev number
1,574

§ Raw data

STARLINK-367431 67876U 26034AC  26145.18211198  .00017135  00000+0  58919-3 0  99992 67876  53.1582 209.1791 0001176  87.8617 272.2519 15.30207835 15740

JSON: /api/v1/satellites/67876 · /tle

For live sub-satellite position, see the globe view (requires WebGL).

§ Visibility from observer

Set your observer location to see the next 7 days of passes ≥ 10°. The values pass through the URL so the page stays shareable.

No JS? Fill the form by hand. The geolocation button needs JavaScript.